Torna al catalogo

SL-8 R/B

AttivoLEO
NORAD 23190·ROCKET BODY·🇷🇺 Russia

Lanciato Aug 2, 1994 da Plesetsk Cosmodrome

Loading…

Prossimi Passaggi (prossime 24 ore)

TLE

AggiornatoSource: Space-Track

Epoca: Sep 14, 2026, 11:10 UTC

1 23190U 94045B   26257.46558285 -.00000079  00000-0 -60086-4 0  9994
2 23190  74.0256 266.7364 0019808 219.0251 140.9441 13.74393572610757

Traccia SL-8 R/B in tempo reale con AllMySat

Download on the App Store